YAOGAN 29 DEB, 42673

Orbit data source: Space-Track

YAOGAN 29 DEB, 42673 is space debris in SSO originally from a launch on Thu, 26 Nov 2015 UTC launched from the Taiyaun Space Center, China (TSC). Debris objects in space refer to the collection of defunct objects orbiting the Earth. Examples of debris include non-operational satellites, rocket bodies, and fragments generated from explosions, collisions, or faulty payload assembly.

Loading next visibility...
Identifier
42673, 2015-069F
Orbit
SSO
Country
Flag of CNCN / PRC
Related business
Manufacturer
Unknown
Mission
Spacecraft
Bus & Motor
Unknown
Mass
Unknown
Launch date (UTC)
2015-11-26 (10 years ago)
Launch vehicle
Unknown
Launch site
Taiyaun Space Center, China (TSC)
Object type
Payload
Rocket body
Debris
Shape & HBR
Unknown shape, 0.1 m
Radar Cross Section
Small (<0.1 m²)

Expand to show TLE details & history
Last TLE update: 1 day ago

TLE from 1 day ago
0 YAOGAN 29 DEB
1 42673U 15069F   26033.31079250  .00001610  00000-0  16915-3 0  9997
2 42673  97.8935  69.2264 0004803  94.8966 265.2800 14.90863089551889
Epoch: 2026-02-02T07:27Z
TLE epoch observation values (Epoch: 2026-02-02T07:27:32.472Z)
Latitude
-0.00003°
Longitude
-175.1668°
Altitude
598.557 km
Speed
7.56 km/s
True Right ascension
04h 36m 54s
True Declination
0° 00' 00"
Sunlit
Object was in daylight at epoch
Visualization orbit readout
Latitude
Unknown
Longitude
Unknown
Altitude
Unknown
Speed
Unknown
Apparent Right ascension
Unknown
Apparent Declination
Unknown
Sunlit
N/A
Visualization observer readout
Local Sidereal Time
17:25:28
Azimuth
Unknown
Elevation
Unknown
Doppler factor
Unknown
Orbital elements
Apogee altitude
595.617 km
Perigee altitude
588.921 km
Semi-major axis
6,970.406 km
Eccentricity
0.00048
Inclination
97.8935°
RAAN
69.2264°
Arg. of periapsis
94.8966°
True anomaly
265.22515°
Mean anomaly
265.28°
Eccentric anomaly
265.25258°
Mean motion
3.72955 °/min
Orbital period
96.53 mins
BSTAR
0.00016915
Loading maneuver chart data...
Computing Atmospheric mass density...
Loading historical data...
Loading historical data...
Loading historical data...
Loading historical data...
Loading historical data...
Loading historical data...
Loading historical data...
Other satellites on launch #69 in the year 2015 (2015-11-26 UTC)

Documentation

Showing up to 5 results
|